SL-16 DEB

Satellite information

Favourite Embed

Satellite Type and Status

DEBRISIN ORBIT

Key statistics

Satellite SL-16 DEB at a glance.

Uptime

11183

Days in orbit

Revolutions

≈ 14.0

Per day

Orbit

LEO

Low Earth Orbit

Inclination

70.9

Latest

Satellite identification and parameters

Extended collection of information and parameters for SL-16 DEB.

Object identification

Identified? True

Debris? True

Object name: SL-16 DEB

International designator: 1994-077F

Object number (NORAD): 23409

Object ID (CCSDS): 23409

Country: COMMONWEALTH OF INDEPENDENT STATES (CIS)

Current information (Y/N): Y

RCS size: MEDIUM

Orbital parameters

Period: 102.947 minutes

Inclination: 70.8814 deg

SMA: 7276.171 km

Apoapsis: 962.831 km

Periapsis: 833.241 km

RAAN: 7.6312 deg

Eccentricy: 0.0089051

Argument of periapsis: 76.9499 deg

Mean anomaly: 284.1536 deg

Mean motion: 13.98776795 rev/day

Mean motion (dot): 0.00000126 rev/day2

B* drag term: 0.00011554 1/REarth

Two-line elements (TLE)

Creation date: July 5, 2025, 10:26 p.m.

Reference frame: TEME

Reference center: EARTH

Epoch: July 5, 2025, 8:09 p.m. UTC

TLE line 0: 0 SL-16 DEB

TLE line 1: 1 23409U 94077F 25186.83987269 .00000126 00000-0 11554-3 0 9997

TLE line 2: 2 23409 70.8814 7.6312 0089051 76.9499 284.1536 13.98776795561951

Live tracking on map

Real-time ground track for satellite SL-16 DEB.

In-orbit conjunctions

A list of the most updated potential collisions computed for object SL-16 DEB.

Target Orbit TCA Probability of collision Miss distance Type
SL-16 DEB LEO 2025-02-28 12:37:03 0.0004289453 78.0 (m) DEBRIS
CZ-6A DEB SSO 2025-02-01 13:31:42 0.0002153642 358.0 (m) DEBRIS

Associated space launch

Second generation ELING satellite

SL-16 DEB was lifted into orbit during the mission ‘Zenit-2 | Tselina-2 16’, on board a Zenit-2 space rocket.

The launch took place on Nov. 24, 1994, 9:15 a.m. from 45/1.

For more information about the launch, click the button.

Launch to space Zenit-2 | Tselina-2 16
Zenit-2 | Tselina-2 16

Agency: N/A

Status: Launch Successful

Launch date: Nov. 24, 1994, 9:15 a.m. UTC

Rocket: Zenit-2

Launch pad: 45/1

Location: Baikonur Cosmodrome, Republic of Kazakhstan

...

Latest news about this satellite

There are no fresh news available about this satellite. Check back as we update our databases every day.


Newsletter sign-up

Weekly statistics, charts and insights to help you stay on top of the space industry.